CW1120 Weather Reports


time (UTC)temp
C
wind
direction
speed
KPH
gust
KPH
rain 1hr
cm
rain 24hr
cm
rain mn
cm
humidity
%
barometer
mb
20260507060136 8 232 11.3 16.1 0.00 0.00 0.00 87 1014.6
20260507055149 8 230 4.8 11.3 0.00 0.00 0.00 89 1014.5
20260507054140 7 223 6.4 8.0 0.00 0.00 0.00 92 1014.4
20260507053201 6 207 3.2 4.8 0.00 0.00 0.00 93 1014.3
20260507052129 5 217 3.2 4.8 0.00 0.00 0.00 93 1014.2
20260507051140 4 355 0.0 3.2 0.00 0.00 0.00 94 1014.1
20260507050140 3 355 0.0 3.2 0.00 0.00 0.00 94 1014.1
20260507045132 3 355 0.0 1.6 0.00 0.00 0.00 95 1013.9
20260507044151 2 355 0.0 0.0 0.00 0.00 0.00 94 1013.9
20260507043142 1 355 0.0 0.0 0.00 0.00 0.00 94 1013.9
20260507042128 1 355 0.0 0.0 0.00 0.00 0.00 94 1013.7
20260507041147 1 355 0.0 0.0 0.00 0.00 0.00 93 1013.8
20260507040138 1 355 0.0 0.0 0.00 0.00 0.00 93 1013.6
20260507035130 1 355 0.0 0.0 0.00 0.00 0.00 93 1013.6
20260507034152 0 355 0.0 0.0 0.00 0.00 0.00 93 1013.5
20260507033144 0 355 0.0 0.0 0.00 0.00 0.00 93 1013.6
20260507032135 0 355 0.0 0.0 0.00 0.00 0.00 92 1013.5
20260507031126 0 355 0.0 0.0 0.00 0.00 0.00 92 1013.5
20260507030148 0 355 0.0 0.0 0.00 0.00 0.00 91 1013.4
20260507025205 0 355 0.0 0.0 0.00 0.00 0.00 91 1013.4
20260507024206 0 355 0.0 0.0 0.00 0.00 0.00 91 1013.4
20260507023136 0 355 0.0 0.0 0.00 0.00 0.00 91 1013.3
20260507022128 0 355 0.0 0.0 0.00 0.00 0.00 91 1013.4
20260507021128 0 355 0.0 0.0 0.00 0.00 0.00 90 1013.3
20260507020138 0 355 0.0 0.0 0.00 0.00 0.00 90 1013.2
20260507015155 0 355 0.0 0.0 0.00 0.00 0.00 90 1013.2
20260507014135 0 355 0.0 0.0 0.00 0.00 0.00 89 1013.1
20260507013137 0 355 0.0 0.0 0.00 0.00 0.00 89 1013.1
20260507012128 0 355 0.0 0.0 0.00 0.00 0.00 88 1013.1
20260507011125 0 355 0.0 0.0 0.00 0.00 0.00 88 1013.1
20260507010143 1 355 0.0 0.0 0.00 0.00 0.00 87 1013.0
20260507005135 1 355 0.0 0.0 0.00 0.00 0.00 87 1013.0
20260507004127 1 355 0.0 0.0 0.00 0.00 0.00 86 1013.0
20260507003146 1 355 0.0 0.0 0.00 0.00 0.00 85 1012.9
20260507002131 1 355 0.0 0.0 0.00 0.00 0.00 85 1013.0
20260507001130 1 355 0.0 0.0 0.00 0.00 0.00 84 1012.9
20260507000138 1 355 0.0 0.0 0.00 0.00 0.00 83 1012.9
20260506235130 1 355 0.0 0.0 0.00 0.00 0.00 82 1012.9
20260506234133 1 355 0.0 0.0 0.00 0.00 0.00 82 1012.8
20260506233126 2 355 0.0 0.0 0.00 0.00 0.00 81 1012.8
20260506232146 2 355 0.0 3.2 0.00 0.00 0.00 81 1012.8
20260506231132 2 355 0.0 0.0 0.00 0.00 0.00 80 1012.8
20260506230142 2 355 1.6 4.8 0.00 0.00 0.00 81 1012.7
20260506225146 2 344 3.2 4.8 0.00 0.00 0.00 80 1012.7
20260506224135 2 334 3.2 4.8 0.00 0.00 0.00 79 1012.7
20260506223149 2 342 0.0 0.0 0.00 0.00 0.00 78 1012.7
20260506222131 2 342 0.0 0.0 0.00 0.00 0.00 77 1012.5
20260506221143 2 342 0.0 0.0 0.00 0.00 0.00 77 1012.6
20260506220131 3 342 0.0 3.2 0.00 0.00 0.00 77 1012.6
20260506215153 3 336 1.6 4.8 0.00 0.00 0.00 77 1012.5
20260506214206 3 330 1.6 6.4 0.00 0.00 0.00 77 1012.4
20260506213207 3 333 3.2 6.4 0.00 0.00 0.00 78 1012.4
20260506212135 3 323 3.2 4.8 0.00 0.00 0.00 78 1012.3
20260506211130 3 355 1.6 4.8 0.00 0.00 0.00 78 1012.1
20260506210133 3 341 3.2 4.8 0.00 0.00 0.00 78 1012.1
20260506205127 3 335 1.6 4.8 0.00 0.00 0.00 78 1012.2
20260506204141 3 334 3.2 4.8 0.00 0.00 0.00 78 1012.1
20260506203141 4 331 1.6 4.8 0.00 0.00 0.00 77 1012.0
20260506202134 5 323 1.6 4.8 0.00 0.00 0.00 76 1012.0
20260506201128 5 324 4.8 6.4 0.00 0.00 0.00 75 1011.9
20260506200130 5 321 1.6 8.0 0.00 0.00 0.00 74 1011.9
20260506195143 5 313 4.8 8.0 0.00 0.00 0.00 73 1011.7
20260506194134 6 290 3.2 6.4 0.00 0.00 0.00 71 1011.7
20260506193128 6 321 3.2 6.4 0.00 0.00 0.00 69 1011.6
20260506192143 7 287 1.6 6.4 0.00 0.00 0.00 66 1011.6
20260506191146 7 311 4.8 6.4 0.00 0.00 0.00 64 1011.4
20260506190137 8 298 3.2 6.4 0.00 0.00 0.00 62 1011.4
20260506185129 8 302 4.8 8.0 0.00 0.00 0.00 61 1011.2
20260506184150 9 318 3.2 14.5 0.00 0.00 0.00 60 1011.2
20260506183130 10 298 6.4 14.5 0.00 0.00 0.00 59 1011.2
20260506182145 10 296 6.4 17.7 0.00 0.00 0.00 62 1011.2
20260506181141 10 279 9.7 17.7 0.00 0.00 0.00 60 1011.1
20260506180140 10 290 9.7 19.3 0.00 0.00 0.00 59 1011.1
20260506175154 11 303 11.3 17.7 0.00 0.00 0.00 60 1011.0
20260506174156 10 355 9.7 20.9 0.00 0.00 0.00 59 1011.0
20260506173128 11 284 6.4 17.7 0.00 0.00 0.00 60 1011.0
20260506172132 11 319 14.5 20.9 0.00 0.00 0.00 60 1011.0
20260506171127 11 316 14.5 22.5 0.00 0.00 0.00 58 1011.0
20260506170151 11 295 14.5 25.7 0.00 0.00 0.00 55 1011.1
20260506165144 11 321 12.9 20.9 0.00 0.00 0.00 53 1011.0
20260506164137 11 298 16.1 22.5 0.00 0.00 0.00 54 1011.0
20260506163136 12 293 12.9 25.7 0.00 0.00 0.00 52 1011.0
20260506162151 11 304 14.5 22.5 0.00 0.00 0.00 52 1011.0
20260506161135 12 290 14.5 25.7 0.00 0.00 0.00 55 1011.0
20260506160129 12 313 12.9 22.5 0.00 0.00 0.00 56 1010.9
20260506155153 12 5 11.3 17.7 0.00 0.00 0.00 59 1011.0
20260506154146 12 328 14.5 25.7 0.00 0.00 0.00 59 1011.0
20260506153138 12 304 12.9 22.5 0.00 0.00 0.00 63 1011.0
20260506152203 12 252 16.1 22.5 0.00 0.00 0.00 60 1011.0
20260506151134 12 285 16.1 22.5 0.00 0.00 0.00 58 1011.1
20260506150129 12 286 9.7 22.5 0.00 0.00 0.00 57 1011.0
20260506145147 12 296 14.5 24.1 0.00 0.00 0.00 57 1011.0
20260506144201 12 278 16.1 24.1 0.00 0.00 0.00 59 1011.2
20260506143142 12 277 11.3 20.9 0.00 0.00 0.00 56 1011.1
20260506142134 12 282 14.5 19.3 0.00 0.00 0.00 51 1011.2
20260506141150 12 271 12.9 19.3 0.00 0.00 0.00 50 1011.1
20260506140143 12 292 17.7 22.5 0.00 0.00 0.00 48 1011.2
20260506135135 12 261 16.1 24.1 0.00 0.00 0.00 50 1011.2
20260506134129 12 286 14.5 25.7 0.00 0.00 0.00 48 1011.2
20260506133131 12 286 14.5 25.7 0.00 0.00 0.00 45 1011.3
20260506132206 12 288 17.7 24.1 0.00 0.00 0.00 52 1011.4
20260506131158 12 288 11.3 25.7 0.00 0.00 0.00 49 1011.3
20260506130130 12 267 14.5 24.1 0.00 0.00 0.00 55 1011.4
20260506125128 12 280 16.1 24.1 0.00 0.00 0.00 51 1011.4
20260506124141 12 269 17.7 25.7 0.00 0.00 0.00 51 1011.5
20260506123142 12 291 14.5 22.5 0.00 0.00 0.00 47 1011.5
20260506122143 12 301 16.1 24.1 0.00 0.00 0.00 46 1011.6
20260506121130 12 254 16.1 25.7 0.00 0.00 0.00 48 1011.7
20260506120152 12 238 17.7 24.1 0.00 0.00 0.00 41 1011.8
20260506115143 11 254 20.9 25.7 0.00 0.00 0.00 43 1011.8
20260506114137 11 244 19.3 24.1 0.00 0.00 0.00 52 1011.8
20260506113140 11 250 19.3 24.1 0.00 0.00 0.00 52 1011.8
20260506112131 11 247 19.3 24.1 0.00 0.00 0.00 52 1011.9
20260506111148 11 250 16.1 24.1 0.00 0.00 0.00 54 1011.9
20260506110141 11 244 16.1 20.9 0.00 0.00 0.00 52 1011.9
20260506105134 11 245 16.1 20.9 0.00 0.00 0.00 50 1011.9
20260506104127 11 230 16.1 20.9 0.00 0.00 0.00 50 1012.0
20260506103128 11 288 16.1 20.9 0.00 0.00 0.00 52 1011.9
20260506102134 11 275 14.5 20.9 0.00 0.00 0.00 50 1012.0
20260506101152 11 248 16.1 20.9 0.00 0.00 0.00 51 1012.0
20260506100149 11 256 14.5 20.9 0.00 0.00 0.00 54 1012.0
20260506095200 11 260 16.1 20.9 0.00 0.00 0.00 53 1012.1
20260506094142 11 252 16.1 20.9 0.00 0.00 0.00 52 1012.1
20260506093132 11 278 14.5 19.3 0.00 0.00 0.00 53 1012.1
20260506092154 11 277 12.9 19.3 0.00 0.00 0.00 55 1012.2
20260506091152 11 272 14.5 20.9 0.00 0.00 0.00 54 1012.2
20260506090151 11 248 16.1 22.5 0.00 0.00 0.00 54 1012.3
20260506085140 11 239 14.5 20.9 0.00 0.00 0.00 54 1012.1
20260506084140 11 233 14.5 20.9 0.00 0.00 0.00 53 1012.2
20260506083133 11 227 16.1 20.9 0.00 0.00 0.00 50 1012.2
20260506082152 11 246 8.0 22.5 0.00 0.00 0.00 51 1012.1
20260506081200 11 211 9.7 14.5 0.00 0.00 0.00 44 1012.1
20260506080130 11 225 4.8 16.1 0.00 0.00 0.00 42 1012.1
20260506073126 10 193 6.4 11.3 0.00 0.00 0.00 45 1011.9
20260506072145 10 166 3.2 11.3 0.00 0.00 0.00 46 1011.9
20260506071132 10 178 4.8 9.7 0.00 0.00 0.00 50 1011.8
20260506070148 10 213 6.4 16.1 0.00 0.00 0.00 47 1011.8
20260506062137 9 163 4.8 11.3 0.00 0.00 0.00 54 1011.8
20260506061134 9 178 6.4 12.9 0.00 0.00 0.00 54 1011.8